Regional Weather Roundup
Issued by NWS Wakefield, VA

Home | Current Version | Previous Version | Text Only | Print | Product List | Glossary On
Versions: 1 2 3 4 5 6 7 8 9 10 11 12 13 14 15 16 17 18 19 20 21 22 23 24 25 26 27 28 29 30 31 32 33 34 35 36 37 38 39 40 41 42 43 44 45 46 47 48 49 50
000
ASUS41 KAKQ 282310
RWRAKQ

REGIONAL WEATHER ROUNDUP
NATIONAL WEATHER SERVICE WAKEFIELD VA
600 PM EST WED JAN 28 2015

Note: "fair" indicates few or no clouds below 12,000 feet with no
significant weather and/or obstructions to visibility. * = Denotes
station may not report precipitation (e.g., rain,snow,etc.),
thunder or fog.

VAZ042-051-052>054-056-290000-
NORTHERN VIRGINIA

CITY           SKY/WX    TMP DP  RH WIND       PRES   REMARKS
WASH NATIONAL  PTCLDY    35   6  29 NW13      30.29R
DULLES         PTCLDY    31   8  38 N8        30.28R
FORT BELVOIR   CLEAR     32   8  36 NW5       30.29R
QUANTICO       PTCLDY    34   5  29 N8        30.30R
FREDERICKSBRG* CLEAR     36   6  28 NW6       30.28R
STAFFORD*      CLEAR     30   5  34 CALM      30.33R
WARRENTON      CLEAR     32  13  45 N9        30.28R
CULPEPER*      CLEAR     34   3  27 N7        30.27S
MANASSAS*      CLEAR     30   9  40 N6        30.28R
LEESBURG*      CLEAR     32  10  40 NW7       30.29R
WINCHESTER     CLEAR     28   7  40 NW8       30.28R
FRONT ROYAL*   FAIR      32   5  32 CALM      30.27R
LURAY*         FAIR      32  10  40 CALM      30.27R
$$

VAZ048-049-060>072-079>083-290000-
CENTRAL AND SOUTH CENTRAL VIRGINIA

CITY           SKY/WX    TMP DP  RH WIND       PRES   REMARKS
RICHMOND       PTCLDY    37   2  22 N9        30.26R
CHESTERFIELD*  FAIR      37   5  25 N3        30.27R
PETERSBURG*    CLEAR     32  12  43 CALM      30.27R
HANOVER        CLEAR     36   1  22 N5        30.28R
TAPPAHANNOCK*  CLEAR     35   1  23 NW5       30.27R
QUINTON*       FAIR      37   4  25 NW3       30.26R
CHARLOTTSVILLE CLEAR     35  -2  20 VRB3      30.26R
GORDONSVILLE*  FAIR      31  13  47 CALM      30.26R
ORANGE*        CLEAR     34   9  35 CALM      30.28R
LOUISA*        CLEAR     30  10  43 CALM      30.25R
BUMPASS*       FAIR      35   6  29 NE5       30.26R
FARMVILLE*     CLEAR     37   1  21 CALM      30.25R
CREWE*         FAIR      35   3  26 N3        30.25R
FORT PICKETT*  FAIR      34  12  40 CALM      30.25R
CHASE CITY*    FAIR      37  14  39 CALM      30.26R
CLARKSVILLE*   FAIR      39  10  30 CALM      30.25R
SOUTH HILL*    CLEAR     35  11  37 CALM      30.32R
LAWRENCEVILLE* FAIR      36  10  34 CALM      30.25R
EMPORIA*       FAIR      32  18  55 CALM      30.29R
$$

VAZ088>098-290000-
SOUTHEAST VIRGINIA

CITY           SKY/WX    TMP DP  RH WIND       PRES   REMARKS
NORFOLK        CLEAR     37   8  30 N10       30.23R
VIRGINIA BEACH CLEAR     36  14  40 NW10      30.22R
NORFOLK NAVAL  PTCLDY    40   9  28 NW13      30.25R
WEST POINT*    CLEAR     38   1  21 NW5       30.28R
SALUDA*        FAIR      34  10  36 NW8       30.25R
NEWPORT NEWS   CLEAR     37   8  30 NW7       30.25R
LANGLEY AFB    CLEAR     35   8  32 NW6       30.25R
FORT EUSTIS    CLEAR     38  17  42 N8        30.24R
WILLIAMSBURG*    N/A     37  12  35 NW10      30.26R
HR EXEC AP*    FAIR      34   7  32 NW5       30.27R
FRANKLIN*      CLEAR     35   8  31 W3        30.27R
WAKEFIELD      CLEAR     34   8  33 CALM      30.26R
$$

VAZ020-022-025-037-045-290000-
WEST CENTRAL AND SOUTHWEST VIRGINIA

CITY           SKY/WX    TMP DP  RH WIND       PRES   REMARKS
STAUNTON*      CLEAR     32   5  32 CALM      30.27R
WAYNESBORO*    FAIR      31   6  35 N5        30.24R
HOT SPRINGS VA CLEAR     25  11  56 NW6       30.12R
LYNCHBURG      CLEAR     33   5  30 CALM      30.25R
DANVILLE       CLEAR     35   8  32 CALM      30.27R
SOUTH BOSTON*  FAIR      40   3  21 CALM      30.27R
MARTINSVILLE   CLEAR     34  15  45 CALM      30.27R
ROANOKE        CLEAR     40   8  26 NW3       30.26R
BLACKSBURG     CLEAR     31  10  41 W3        30.25R
DUBLIN*        CLEAR     35  15  43 CALM      30.24R
MARION*        CLEAR     33  19  58 W9        30.24R
HILLSVILLE*    CLEAR     34  16  47 NW7       30.19S
RICHLANDS*     FAIR      32  16  52 SW3       30.22R
WISE*          CLEAR     34  18  51 CALM      30.22S
ABINGDON*      CLEAR     35  19  53 W5        30.25R
$$

MDZ021>025-VAZ099-100-290000-
SOUTHERN MARYLAND AND THE DELMARVA PENINSULA

CITY           SKY/WX    TMP DP  RH WIND       PRES   REMARKS
PATUXENT RIVER CLEAR     33  10  38 NW16      30.26R WCI  23
BAY BRIDGE APT   N/A     34  10  37 NW13G18   30.26R WCI  25
LEONARDTOWN    CLEAR     32   5  32 NW6       30.27
DOVER          CLEAR     29   7  38 NW12      30.23R WCI  19
GEORGETOWN     CLEAR     32   5  32 NW6       30.22R
EASTON         CLEAR     32  12  43 MISG      30.28R
CAMBRIDGE      CLEAR     36  12  38 NW8       30.24R
SALISBURY      CLEAR     34   8  33 NW9       30.22R
OCEAN CITY     CLEAR     31   9  39 NW9       30.21R
WALLOPS ISLAND CLEAR     32   9  38 NW12      30.22R WCI  23
ACCOMACK*      CLEAR     32  14  47 NW9G16    30.22R
$$

NCZ012>017-030>032-290000-
NORTH CENTRAL AND EASTERN NORTH CAROLINA

CITY           SKY/WX    TMP DP  RH WIND       PRES   REMARKS
ROANOKE RAPIDS FAIR      36  12  38 CALM      30.27R
RALEIGH        PTCLDY    39   9  29 CALM      30.27R
ELIZABETH CITY CLEAR     34  13  41 NW5       30.24R
AHOSKIE*       CLEAR     35   8  31 CALM      30.28R
EDENTON*       CLEAR     37  11  33 N8        30.25R
CURRITUCK*     CLEAR     37   6  28 NW5       30.24R
KILL DEVIL HLS CLEAR     36  11  36 NW5       30.21R
MANTEO         CLEAR     37  12  35 N8        30.23R
CAPE HATTERAS  CLEAR     38  16  40 NW9       30.22R
TARBORO*       FAIR      39  10  30 NW3       30.29R
GOLDSBORO      CLEAR     40  12  31 CALM      30.26R
WASHINGTON     CLEAR     38  10  31 NW3       30.27R
GREENVILLE     CLEAR     37  10  32 CALM      30.28R
NEW BERN       CLEAR     39  12  33 NW5       30.27R
WILMINGTON     CLEAR     40  15  36 N6        30.27R
$$

VAZ048-290000-
ELSEWHERE

CITY           SKY/WX    TMP DP  RH WIND       PRES   REMARKS
HARRISBURG PA  PTCLDY    24   8  50 NW8       30.25R
BALTIMORE      PTCLDY    29   7  39 W6        30.26R
ANNAPOLIS      FAIR      33   6  32 NW9       30.27R
ANDREWS AFB    CLEAR     31   7  36 NW9       30.26R
PHILADELPHIA   CLEAR     32   3  29 NW9       30.22R
HENDERSON NC   CLEAR     38   6  26 CALM      30.26R
GREENSBORO     CLEAR     42  11  28 CALM      30.24R
ROCKY MOUNT    CLEAR     36  13  38 CALM      30.27R
$$

VAZ100-290000-
MARINE

STATION/POSITION TIME  TEMP    WIND        PRES    WAVE   SWELL
                       AIR SEA DIR/SP/G            HT/PER HT/PER
                 (UTC) (F)     (DEG/KT/KT) (MB)    (FT/S) (FT/S)
BRANDYWINE LGT   2300          340/ 22/ 26   N/A
CAPE MAY NJ      2300   32 35   70/  2/ 11 1022.2R
LEWES DE         2300   33 34  330/ 18/ 22 1022.6R
15NM E FENWICK I 2300   34 40              1021.4R   6/ 6
OCEAN-CITY-INLET 2300   34 38  340/ 12/ 15 1022.2R
WACHAPREAGUE VA  2300   34 36  310/  3/  8 1023.1R
THOMAS POINT MD  2300   33 36  310/  8/ 10 1026.0R
GOOSES REEF MD   2300   35     VRB 16/ 19  1023.2R
COVE POINT MD    2300   33     330/ 15/ 19 1024.1R
SOLOMONS ISLAND  2300      37                N/A
BISHOPS HEAD MD  2300   33 35  320/  9/ 12 1023.4R
PINEY POINT MD   2300          330/ 19/ 20   N/A
POTOMAC MD       2300   35     330/ 17/ 21 1023.2R
CAMBRIDGE MD     2300   35 35  310/ 12/ 17 1023.8R
LEWISETTA VA     2300   35 37  320/ 10/ 14 1024.3R
RAPPAHANNOCK LGT 2300          310/ 22/ 25 1024.2R
STINGRAY PT      2300   36     330/ 16/ 19 1024.4R
YORK RVR RNG VA  2300   38     340/ 19/ 22 1023.2R
YORKTOWN VA      2300   38 40  340/  9/ 11 1023.8R
JAMESTOWN VA     2300   38     360/  8/ 12   N/A
DOMINION TERM VA 2300   40     330/ 10/ 13 1023.6S
KIPTOPEKE VA     2300      44  330/ 17/ 21   N/A
CHES BAY BRIDGE  2300   38 40  330/ 18/ 21 1023.0S
CAPE HENRY VA    2300   37     330/ 19/ 21 1021.9S
CHESAPEAKE LGHT  2200   36     330/ 26/ 28 1023.0R
WILLOUBY STN VA  2300   38     340/ 14/ 16 1024.1S
S CRANEY ISL VA  2300          340/  9/ 12 1023.9R
CAPE HENRY BUOY  2300      43                N/A     5/ 4   2/13
1ST LANDING BUOY 2300   38     340/ 17/ 21 1022.9S
CAPE CHARLES BUO 2300      41                N/A     4/13   3/13
OFFSHORE WE BUOY 2300      44                N/A     7/ 5   3/13
64NM E OF VA BCH 2300   38 51  330/ 23/ 27 1021.4R   8/ 6   3/13
DUCK PIER NC     2300   37 42  330/ 14/ 16 1022.1R
44100 DUCK FRF   2300      45                N/A     7/13   3/13
44056 DUCK FRF   2300      42                N/A     5/12   2/12
OREGON INLET NC  2300   35 42  340/  5/  8 1022.9R
HATTERAS NC      2300   40 45  340/ 16/ 20 1023.3R


USA.gov is the U.S. government's official web portal to all federal, state and local government web resources and services.